Wind_Speed
79 81 81 80 84 87 85 79 77 77 81 83 83 81 79 80 82 80 80 85 87 87 90 94 93 91 92 98 101 106 108 104 105 109 112 112 101 96 98 95 86 56 46 35 32 31 32 31 27
80 80 81 85 84 88 86 82 78 77 79 81 82 75 79 80 84 86 85 88 90 90 91 88 90 93 99 100 105 108 109 109 107 109 99 98 97 99 84 68 42 22 23 16 21 21 22 19 18
86 86 85 84 86 88 85 84 81 81 85 81 82 76 76 79 84 83 82 86 87 86 88 91 97 102 105 104 107 110 110 111 102 96 88 90 87 70 54 38 27 19 17 19 23 22 24 26 24
89 86 86 92 82 81 80 82 85 87 88 86 86 82 80 83 85 83 84 88 86 92 97 97 101 104 105 104 107 110 110 97 92 81 80 74 65 43 26 18 18 21 23 25 27 25 23 23 22
88 87 88 90 83 82 72 74 85 79 85 87 81 86 89 90 91 93 91 93 93 95 94 101 103 102 101 105 108 106 104 93 83 73 67 51 39 25 21 22 23 27 28 29 29 30 26 26 26
88 91 90 78 83 84 80 83 92 84 82 83 76 79 84 91 94 91 92 92 94 98 99 99 98 99 102 105 105 100 93 73 66 57 45 36 27 26 26 27 29 30 33 34 32 28 25 26 27
91 93 90 88 88 82 81 86 84 85 87 90 84 88 88 89 88 90 93 95 95 98 96 96 97 100 102 97 87 72 71 64 52 41 36 29 30 28 31 32 33 34 37 37 33 30 29 29 27
90 88 91 92 83 77 82 77 78 77 81 84 80 88 94 95 95 96 93 94 93 91 92 97 101 99 96 81 71 63 54 44 38 33 31 32 33 32 34 37 39 40 40 40 35 33 32 30 31
93 88 84 85 84 82 80 75 77 77 74 72 76 87 91 91 90 90 89 87 88 92 96 97 98 90 82 72 62 52 46 40 36 38 40 39 39 41 43 44 45 46 46 44 39 35 33 33 30
86 88 90 87 86 86 89 78 77 73 75 74 82 85 89 90 89 88 87 90 90 92 93 91 81 74 71 60 55 49 43 38 39 39 44 48 48 49 55 49 48 46 45 44 40 40 36 35 33
86 89 91 91 86 82 85 86 81 76 80 81 83 86 87 87 88 87 87 83 86 83 78 73 60 56 59 50 47 39 39 42 46 45 49 51 51 52 53 52 48 47 46 44 43 39 39 39 37
74 80 84 86 86 86 87 85 86 88 85 85 85 88 89 84 81 83 86 86 79 79 69 58 52 54 49 43 44 46 47 47 50 53 54 56 57 55 54 50 46 46 47 45 44 44 45 44 42
67 73 78 77 79 76 82 86 90 92 86 84 85 87 84 81 82 81 85 84 76 60 51 50 45 39 45 48 50 46 47 49 50 53 58 59 57 54 51 49 48 46 48 49 49 50 50 48 46
66 70 72 73 77 82 83 83 85 86 87 85 83 81 78 76 77 76 70 67 58 50 41 37 24 40 40 51 41 47 57 56 53 54 55 55 54 52 54 50 50 51 53 53 53 51 51 50 48
60 66 68 68 74 82 81 80 80 79 76 78 76 71 72 68 69 62 61 59 50 36 33 20 12 42 36 46 37 52 61 57 49 46 51 55 55 52 54 55 56 54 54 54 55 54 52 50 48
52 56 63 67 68 69 70 71 70 69 71 73 75 76 75 78 60 48 45 45 39 34 33 28 33 43 51 47 50 58 57 52 54 54 49 52 57 59 62 59 59 60 59 56 57 56 55 56 56
43 47 49 52 56 57 59 63 62 61 61 61 61 58 56 56 39 34 41 39 39 34 35 29 38 45 47 50 53 56 58 57 54 52 57 61 60 61 61 62 64 64 62 62 63 63 64 65 66
39 41 42 48 48 48 48 48 50 49 49 48 50 46 44 38 36 32 37 38 39 35 29 29 35 40 42 51 57 59 58 54 55 61 63 63 64 66 67 68 67 68 66 66 68 71 73 73 72
34 35 33 35 33 34 36 36 42 39 39 42 41 42 40 34 33 33 34 35 35 37 35 35 41 43 46 51 58 58 55 57 62 65 65 65 66 68 70 73 74 73 73 76 79 80 80 82 83
24 26 26 28 30 31 34 33 38 37 35 35 37 38 36 36 34 31 33 32 32 41 43 40 44 50 53 57 59 59 60 63 68 68 69 70 73 74 74 76 78 79 81 85 88 89 88 90 94
24 25 24 28 28 28 32 29 28 32 33 32 34 35 33 32 32 35 39 35 33 43 48 50 51 53 56 58 56 60 64 66 68 71 73 78 80 81 84 86 87 88 90 93 96 100 101 102 104
15 17 20 23 24 26 30 24 27 29 32 28 35 33 35 34 36 43 44 40 42 44 48 51 55 58 56 55 58 62 66 70 74 75 78 81 84 89 92 96 98 100 102 105 107 110 113 115 116
16 17 20 23 26 28 32 26 26 25 23 30 40 31 36 33 32 36 42 49 51 51 53 56 59 60 60 61 64 67 72 76 78 81 84 88 92 96 100 103 106 110 115 118 120 121 124 123 121
21 21 20 22 24 28 31 32 28 21 23 26 34 40 45 43 39 36 37 45 51 56 57 56 57 61 63 68 71 75 81 85 89 91 94 96 100 106 110 111 114 118 122 124 125 125 124 122 122
12 16 20 23 25 24 29 30 28 27 29 29 31 31 34 36 38 37 41 45 50 54 57 59 62 65 66 68 71 77 84 88 92 94 97 102 107 112 116 122 126 130 131 129 129 128 127 122 117
4 6 7 12 17 21 22 22 23 26 26 27 29 31 33 39 44 43 43 44 46 51 55 56 62 68 73 77 82 88 93 97 101 104 107 110 113 121 126 126 130 134 133 130 126 122 116 110 106
8 9 11 14 18 22 18 21 21 25 27 29 32 35 38 39 45 44 47 49 53 54 59 62 67 72 78 84 90 94 97 100 104 110 114 117 120 127 131 134 135 132 129 124 119 114 110 107 104
11 13 15 18 22 28 27 26 31 30 33 35 37 40 43 43 45 49 51 54 55 58 63 68 74 80 84 87 92 98 103 105 110 116 122 124 130 135 136 136 131 125 120 116 110 108 106 103 100
12 16 15 17 20 24 32 28 31 36 38 39 41 45 49 50 51 52 56 59 62 65 69 73 77 80 86 91 96 102 110 114 119 124 130 132 139 139 130 128 123 117 112 109 106 103 98 93 88
16 17 18 21 25 29 33 35 34 37 38 41 45 48 51 53 55 57 58 61 64 68 74 78 83 88 93 97 104 111 116 122 127 134 138 138 137 129 126 123 116 112 107 104 98 94 90 85 79
Wind_Direction
236 235 240 244 249 251 252 258 262 265 268 269 270 271 272 275 276 279 281 283 284 287 288 290 293 295 298 300 302 303 303 303 302 302 300 301 298 303 309 312 314 308 304 309 313 309 304 301 297
233 236 239 244 246 249 253 255 259 263 265 268 269 272 273 274 274 275 280 283 285 288 289 291 294 296 299 302 301 301 302 303 300 298 297 299 305 313 314 313 307 315 320 355 2 359 360 357 354
234 239 240 241 244 247 252 257 258 261 264 266 270 269 273 273 276 279 282 284 285 287 290 292 295 297 299 299 299 302 303 301 298 297 302 309 311 310 304 296 294 303 319 345 355 351 358 5 5
234 237 240 242 242 250 254 257 257 258 263 264 270 269 270 272 276 279 283 284 287 290 292 295 295 296 296 297 299 302 299 296 295 309 310 310 307 300 284 290 299 319 325 334 343 346 354 0 357
234 238 241 242 246 245 250 254 253 260 263 263 269 273 274 275 278 279 281 285 287 290 291 293 294 296 295 297 298 296 294 299 304 308 309 302 297 286 287 288 306 317 324 328 330 335 337 344 344
234 236 241 241 238 241 245 249 254 256 259 263 262 269 273 273 276 280 281 284 287 287 289 293 294 293 295 294 294 295 295 302 307 304 295 289 286 293 295 305 310 315 321 322 326 325 326 334 334
233 235 237 238 239 244 246 250 255 259 261 262 266 269 272 275 276 281 282 283 287 290 290 291 291 290 295 293 294 297 302 305 300 290 288 291 293 296 299 302 303 306 312 315 316 316 318 321 322
233 235 236 241 240 245 247 252 254 257 259 262 267 269 270 274 277 280 282 285 287 286 286 288 291 290 291 293 298 301 300 295 288 284 289 291 294 297 297 299 301 301 302 305 307 311 311 314 314
233 236 237 241 245 247 247 251 257 260 262 263 264 268 272 274 276 277 280 283 284 283 287 288 287 287 290 291 296 296 292 288 286 285 289 294 296 298 299 299 298 299 299 299 301 303 305 304 304
231 236 238 241 242 247 249 250 253 256 257 257 261 268 271 274 277 280 282 282 284 285 285 286 284 290 293 297 297 293 287 290 288 288 291 290 291 292 296 296 295 294 292 292 297 301 300 300 301
232 232 234 239 240 245 249 252 254 253 254 259 264 265 272 275 278 282 283 281 282 282 282 286 290 294 298 296 289 288 286 285 286 288 292 294 295 292 293 292 292 293 292 294 298 296 297 297 296
235 238 242 243 246 247 250 251 254 256 259 262 263 268 273 277 275 277 278 276 279 281 281 287 288 297 291 283 285 291 288 288 292 294 292 291 291 295 293 295 299 299 298 295 295 296 297 296 294
235 238 241 242 245 247 249 250 254 258 259 261 264 271 273 275 277 277 276 277 277 281 284 288 299 311 300 296 292 290 283 287 291 294 294 292 292 293 292 295 296 294 293 293 291 290 291 291 292
233 236 241 244 246 247 249 250 255 259 262 263 267 268 273 276 276 278 277 277 280 281 288 296 314 305 293 294 292 282 285 291 296 296 296 294 295 295 295 296 295 294 293 292 291 291 292 293 293
241 242 243 246 247 247 250 255 257 259 261 263 266 272 274 276 277 279 278 277 273 278 277 276 290 281 286 282 280 291 294 298 298 299 296 294 296 296 296 294 294 292 290 290 290 292 293 290 287
244 245 247 250 252 253 255 258 261 264 268 269 273 273 276 281 276 278 271 270 272 275 268 257 248 254 272 283 276 284 297 298 300 298 296 297 299 297 294 294 293 294 296 294 293 292 290 288 286
250 251 253 253 255 257 258 261 264 267 268 270 271 272 271 270 268 265 269 273 273 270 276 271 264 269 270 282 286 292 297 295 296 295 295 295 295 294 292 293 294 295 294 290 289 289 288 286 284
245 247 249 250 252 254 256 259 261 265 265 264 266 266 264 261 256 257 265 273 276 282 278 282 275 277 281 288 291 293 291 293 295 299 300 299 297 297 296 294 292 293 289 286 287 287 287 285 283
249 253 252 253 254 256 256 258 257 256 259 258 259 258 261 254 262 262 264 274 284 289 290 289 285 281 288 291 291 292 294 294 298 300 298 296 296 294 294 293 293 291 286 285 286 286 286 285 286
244 243 240 249 247 253 250 248 252 253 250 254 257 257 258 258 263 270 273 279 289 286 288 286 284 286 289 291 295 298 296 294 296 297 295 292 292 294 294 294 290 290 289 287 288 289 289 289 286
235 235 235 243 246 249 249 242 246 253 252 256 264 268 270 278 286 287 288 291 286 286 288 289 290 290 291 296 297 297 297 298 298 296 296 295 294 293 294 294 294 295 295 294 293 292 291 290 288
241 242 244 247 252 253 257 256 259 263 268 266 265 269 268 274 282 286 287 288 285 284 288 291 293 293 294 296 299 297 297 298 297 298 297 296 296 297 297 297 297 297 297 295 294 295 296 295 293
259 252 257 255 254 257 263 266 260 265 270 265 273 276 279 282 282 285 292 294 293 292 291 293 294 295 297 297 298 298 299 301 299 298 298 298 299 299 298 299 299 299 300 300 299 295 295 294 293
256 261 260 259 264 268 271 271 275 273 258 249 261 270 278 287 290 286 283 284 288 291 295 296 294 295 297 299 299 300 302 304 305 303 301 301 302 301 300 301 300 300 300 299 298 297 295 294 292
265 261 260 261 270 276 279 288 295 281 270 269 275 276 281 289 286 288 290 292 295 296 296 298 300 299 298 297 294 294 297 299 299 300 300 301 300 299 300 301 300 299 301 299 298 297 295 293 293
291 288 289 282 286 290 308 311 310 300 299 287 280 280 285 290 292 294 296 294 293 294 296 297 297 300 302 301 301 302 304 306 305 304 302 301 300 300 300 301 301 301 300 299 297 296 295 294 293
349 333 324 316 312 308 309 309 305 305 304 302 299 298 291 290 295 298 297 298 299 297 299 301 301 303 302 302 303 304 303 302 301 301 300 299 300 302 304 303 302 301 299 299 298 298 297 297 295
330 327 327 326 323 320 316 318 315 310 306 304 303 299 297 297 296 296 295 298 298 297 298 300 301 303 305 304 303 303 303 303 302 301 302 301 302 304 304 303 301 299 299 298 298 297 296 295 295
315 320 311 310 311 315 315 313 310 308 305 302 302 301 296 297 297 298 300 303 302 301 299 299 302 303 302 303 304 303 303 304 305 303 304 305 304 305 303 302 302 302 302 302 301 300 299 297 296
300 286 291 301 314 320 319 318 317 314 309 303 305 305 303 301 301 302 302 300 300 301 302 303 304 305 306 306 307 307 305 304 305 305 306 306 306 306 305 303 305 305 304 303 302 301 299 297 297
Height
10845 10849 10857 10861 10859 10855 10858 10870 10874 10880 10870 10866 10875 10877 10873 10874 10874 10873 10868 10865 10865 10865 10861 10858 10854 10849 10845 10839 10831 10824 10818 10811 10803 10795 10785 10777 10768 10761 10753 10744 10734 10722 10716 10708 10700 10695 10691 10685 10681
10833 10839 10846 10847 10847 10844 10852 10866 10867 10866 10855 10859 10866 10871 10865 10863 10857 10864 10867 10854 10855 10855 10849 10846 10841 10837 10833 10826 10819 10811 10803 10795 10788 10778 10770 10762 10753 10745 10737 10730 10724 10718 10715 10705 10700 10695 10689 10682 10675
10824 10828 10832 10837 10834 10835 10845 10852 10861 10852 10846 10851 10855 10865 10860 10849 10846 10857 10858 10844 10847 10846 10839 10833 10830 10825 10821 10814 10805 10797 10789 10780 10771 10763 10754 10747 10740 10733 10727 10722 10717 10715 10713 10705 10701 10697 10689 10681 10674
10815 10817 10819 10820 10823 10832 10841 10844 10843 10838 10836 10844 10846 10851 10850 10841 10842 10847 10845 10835 10834 10832 10828 10822 10818 10814 10809 10800 10791 10784 10774 10764 10755 10748 10741 10735 10728 10722 10719 10716 10713 10710 10707 10702 10700 10696 10689 10681 10675
10808 10808 10805 10816 10822 10817 10833 10828 10829 10827 10827 10838 10842 10832 10835 10833 10831 10834 10833 10828 10827 10823 10816 10811 10806 10801 10796 10788 10779 10771 10762 10751 10744 10738 10731 10725 10721 10719 10715 10711 10707 10705 10702 10698 10696 10692 10687 10680 10674
10796 10794 10800 10810 10803 10808 10818 10816 10813 10825 10820 10828 10834 10827 10821 10822 10825 10826 10821 10823 10815 10810 10805 10799 10795 10788 10781 10775 10766 10757 10749 10742 10735 10730 10723 10720 10715 10714 10712 10706 10703 10700 10696 10692 10689 10688 10685 10679 10674
10779 10792 10787 10792 10790 10802 10806 10804 10806 10818 10814 10811 10825 10813 10811 10814 10814 10814 10812 10809 10805 10800 10794 10788 10782 10776 10769 10762 10753 10745 10739 10733 10727 10721 10716 10713 10708 10706 10705 10701 10698 10696 10691 10688 10685 10681 10678 10674 10671
10770 10779 10780 10783 10787 10796 10792 10798 10799 10802 10799 10805 10804 10800 10802 10803 10805 10804 10801 10798 10795 10789 10782 10777 10770 10761 10756 10749 10742 10736 10729 10723 10721 10714 10710 10708 10702 10701 10697 10694 10691 10689 10684 10682 10679 10676 10672 10670 10666
10762 10770 10771 10774 10781 10786 10785 10788 10787 10793 10789 10793 10791 10791 10792 10792 10792 10793 10792 10790 10784 10775 10770 10763 10756 10747 10742 10736 10730 10726 10721 10717 10715 10710 10706 10702 10696 10693 10690 10687 10683 10680 10676 10674 10671 10670 10667 10665 10661
10750 10755 10764 10768 10769 10775 10773 10781 10777 10784 10782 10782 10779 10783 10780 10781 10782 10782 10780 10776 10768 10763 10755 10750 10743 10736 10735 10726 10719 10714 10710 10706 10703 10701 10700 10696 10690 10686 10680 10676 10673 10670 10667 10664 10663 10661 10659 10658 10655
10743 10741 10748 10752 10760 10763 10764 10769 10769 10771 10769 10773 10772 10770 10771 10771 10771 10769 10767 10760 10756 10751 10744 10738 10733 10731 10721 10715 10711 10706 10704 10700 10697 10693 10688 10688 10683 10678 10674 10669 10665 10662 10659 10656 10654 10653 10650 10648 10647
10731 10735 10740 10743 10751 10755 10753 10756 10760 10757 10762 10763 10763 10760 10762 10760 10758 10758 10753 10748 10742 10736 10732 10728 10722 10722 10718 10708 10704 10699 10695 10691 10685 10680 10679 10676 10673 10670 10665 10662 10658 10653 10648 10646 10643 10640 10638 10637 10636
10722 10723 10726 10731 10736 10741 10741 10744 10747 10750 10751 10752 10752 10751 10749 10748 10747 10744 10738 10735 10728 10724 10720 10718 10719 10715 10707 10699 10697 10696 10691 10687 10681 10673 10668 10664 10660 10658 10655 10653 10648 10645 10642 10638 10634 10632 10630 10627 10625
10710 10713 10717 10722 10726 10727 10731 10734 10737 10739 10742 10743 10741 10739 10736 10738 10734 10733 10727 10720 10716 10715 10714 10712 10710 10702 10693 10686 10686 10681 10680 10679 10672 10665 10660 10651 10651 10649 10645 10642 10637 10634 10630 10628 10624 10621 10618 10615 10613
10703 10707 10711 10713 10715 10717 10722 10725 10726 10727 10728 10727 10726 10727 10727 10724 10721 10719 10714 10710 10705 10707 10710 10711 10701 10687 10679 10672 10676 10670 10664 10668 10661 10656 10650 10644 10641 10638 10633 10629 10625 10622 10618 10615 10610 10607 10604 10602 10599
10696 10700 10702 10704 10705 10709 10714 10714 10713 10714 10712 10713 10711 10712 10713 10713 10714 10708 10700 10697 10694 10701 10698 10701 10689 10680 10671 10663 10665 10663 10656 10652 10647 10646 10641 10633 10630 10623 10618 10614 10611 10607 10603 10599 10594 10591 10588 10586 10584
10692 10693 10694 10696 10697 10701 10703 10701 10701 10701 10702 10701 10701 10701 10702 10707 10706 10700 10688 10690 10686 10694 10687 10690 10680 10669 10664 10658 10654 10653 10645 10641 10639 10633 10627 10623 10619 10614 10609 10604 10597 10591 10586 10579 10576 10574 10572 10569 10566
10681 10683 10687 10685 10689 10690 10691 10691 10690 10694 10694 10692 10693 10696 10695 10695 10696 10693 10688 10683 10678 10678 10680 10677 10669 10663 10658 10652 10646 10639 10637 10630 10626 10620 10613 10606 10602 10597 10592 10588 10583 10578 10570 10564 10560 10557 10552 10548 10546
10676 10678 10680 10677 10680 10682 10683 10688 10681 10687 10686 10682 10686 10687 10687 10686 10685 10685 10681 10676 10669 10664 10667 10664 10655 10653 10651 10645 10636 10631 10625 10619 10612 10607 10599 10593 10588 10581 10575 10568 10564 10559 10551 10545 10539 10536 10532 10527 10520
10671 10673 10673 10675 10675 10677 10677 10682 10676 10683 10679 10676 10677 10678 10678 10679 10678 10675 10669 10668 10664 10654 10652 10653 10649 10640 10639 10634 10627 10619 10611 10605 10598 10590 10584 10578 10571 10565 10557 10551 10542 10535 10530 10521 10512 10508 10506 10501 10490
10666 10667 10671 10669 10671 10672 10669 10677 10674 10673 10675 10674 10672 10670 10670 10669 10665 10659 10655 10655 10657 10648 10642 10639 10635 10631 10627 10621 10614 10606 10598 10591 10583 10575 10568 10559 10549 10543 10535 10526 10518 10511 10505 10497 10488 10478 10470 10470 10462
10664 10666 10667 10667 10667 10667 10665 10673 10671 10670 10667 10670 10665 10665 10663 10661 10659 10652 10645 10646 10643 10641 10637 10630 10624 10618 10614 10609 10601 10592 10585 10576 10567 10561 10551 10539 10529 10518 10508 10498 10489 10481 10473 10464 10456 10446 10436 10427 10421
10660 10662 10663 10663 10664 10664 10659 10664 10665 10666 10669 10662 10653 10653 10652 10653 10653 10649 10641 10632 10628 10626 10623 10621 10613 10604 10599 10594 10587 10576 10567 10559 10550 10540 10529 10518 10507 10494 10480 10469 10460 10447 10436 10425 10417 10408 10398 10388 10380
10658 10658 10659 10658 10658 10656 10654 10653 10655 10659 10655 10657 10652 10649 10644 10642 10642 10641 10638 10629 10622 10614 10611 10606 10599 10593 10585 10577 10566 10555 10544 10535 10525 10513 10502 10490 10478 10463 10448 10442 10430 10417 10405 10394 10380 10366 10356 10346 10337
10653 10653 10652 10653 10652 10650 10647 10647 10646 10645 10645 10646 10644 10642 10638 10635 10632 10632 10629 10622 10611 10603 10596 10589 10582 10575 10573 10569 10560 10547 10535 10524 10511 10499 10486 10473 10458 10440 10426 10413 10398 10382 10369 10356 10341 10326 10312 10303 10294
10650 10650 10649 10648 10647 10645 10645 10644 10640 10636 10637 10636 10635 10634 10632 10624 10618 10619 10618 10613 10605 10595 10588 10582 10572 10562 10551 10542 10531 10520 10506 10494 10480 10467 10456 10444 10430 10414 10397 10384 10365 10340 10328 10314 10301 10286 10274 10264 10254
10648 10648 10647 10645 10643 10641 10643 10641 10639 10635 10631 10628 10625 10624 10621 10617 10609 10607 10601 10597 10590 10582 10573 10566 10557 10548 10536 10522 10510 10500 10488 10478 10464 10448 10432 10418 10402 10380 10361 10345 10328 10307 10286 10272 10262 10250 10235 10224 10214
10646 10645 10643 10641 10638 10633 10634 10635 10630 10630 10626 10622 10619 10613 10608 10606 10603 10595 10589 10586 10581 10572 10562 10552 10541 10532 10521 10508 10494 10478 10463 10452 10438 10420 10400 10383 10362 10346 10328 10307 10287 10270 10254 10240 10227 10216 10202 10191 10181
10643 10641 10640 10638 10636 10632 10625 10628 10626 10621 10618 10613 10609 10604 10597 10594 10590 10583 10576 10570 10562 10552 10544 10537 10527 10516 10502 10490 10475 10457 10439 10423 10405 10382 10363 10347 10322 10306 10285 10261 10245 10231 10216 10202 10190 10176 10165 10157 10150
10640 10638 10636 10633 10631 10627 10621 10617 10617 10614 10609 10604 10599 10593 10584 10578 10574 10568 10562 10555 10548 10540 10528 10517 10507 10494 10480 10466 10448 10427 10409 10392 10374 10351 10333 10311 10284 10266 10246 10221 10209 10195 10183 10172 10159 10147 10135 10128 10121